Simultaneous Nadir Overpasses (SNOs) Predictions

Prediction of SNOs between AQUA and METOP-B Satellite Orbit:

Table of predicted SNOs for the next 14.0 days since TLE Epoch: 5/24/2014
Index Date (AQUA) Time (AQUA) Lat,Lon (AQUA) SZA (AQUA ) Date (METOP-B) Time (METOP-B) Lat,Lon (METOP-B) SZA (METOP-B ) Distance(km) Time Diff (sec)
1 05/26/2014 13:46:20 73.71, -31.98 52.51 05/26/2014 13:45:10 73.71, -32.03 52.53 1.48 70
2 05/26/2014 14:35:47 -73.81, 135.46 127.40 05/26/2014 14:35:50 -73.79, 135.47 127.42 2.35 3
3 05/26/2014 15:25:16 73.87, -57.05 52.67 05/26/2014 15:26:29 73.84, -57.06 52.64 3.14 73
4 05/29/2014 09:20:31 73.74, 34.42 52.09 05/29/2014 09:19:33 73.72, 34.38 52.07 2.89 58
5 05/29/2014 10:09:57 -73.78,-158.02 127.89 05/29/2014 10:10:13 -73.79,-158.13 127.87 3.72 16
6 05/29/2014 10:59:35 74.31, 8.40 52.69 05/29/2014 11:00:43 74.29, 10.44 52.60 61.48 68
7 06/01/2014 04:54:41 73.74, 100.88 51.68 06/01/2014 04:53:55 73.76, 100.89 51.71 2.74 46
8 06/01/2014 05:44:08 -73.82, -91.66 128.24 06/01/2014 05:44:35 -73.83, -91.62 128.23 1.74 27
9 06/04/2014 00:28:50 73.76, 167.28 51.35 06/04/2014 00:28:17 73.75, 167.27 51.35 0.95 33
10 06/04/2014 01:18:17 -73.84, -25.24 128.58 06/04/2014 01:18:57 -73.82, -25.24 128.60 1.76 40
11 06/06/2014 19:13:20 -73.15, 67.40 129.60 06/06/2014 19:12:13 -73.08, 64.82 129.57 83.55 67
12 06/06/2014 20:02:59 73.76,-126.25 51.04 06/06/2014 20:02:39 73.79,-126.24 51.08 3.64 20
13 06/06/2014 20:52:26 -73.83, 41.24 128.89 06/06/2014 20:53:19 -73.86, 41.25 128.87 3.27 53




NCC Satellite Simultaneous Nadir Overpasses (SNOs) Prediction Service
